Stations météo

réclame
Mon MeteoGroup
S. Maria Di Leuca, Italie (16360): Température de l'air & dewpoint: 08.08.2018 19:00:00 - 14.08.2018 19:00:00 (CEST)S. Maria Di Leuca, Italie (16360): Vitesse du vent: 08.08.2018 19:00:00 - 14.08.2018 19:00:00 (CEST)S. Maria Di Leuca, Italie (16360): Direction du vent: 08.08.2018 19:00:00 - 14.08.2018 19:00:00 (CEST)S. Maria Di Leuca, Italie (16360): reduced air pressure: 08.08.2018 19:00:00 - 14.08.2018 19:00:00 (CEST)S. Maria Di Leuca, Italie (16360): visibility: 08.08.2018 19:00:00 - 14.08.2018 19:00:00 (CEST)S. Maria Di Leuca, Italie (16360): Ensoleillement: 08.08.2018 19:00:00 - 14.08.2018 19:00:00 (CEST)
Date & Time tt [°C] td [°C] ff [km/h] ff [knt] dd ppp [hPa] vv [km] sd [min]
14.08.2018 19:00:00 27,4 25,6 9 5 S 1010,4 10 48
14.08.2018 18:00:00 27,8 26,0 9 5 SSE 1010,3 10 60
14.08.2018 17:00:00 28,0 25,2 9 5 SE 1010,7 10 60
14.08.2018 16:00:00 28,0 25,2 9 5 SW 1011,1 10 60
14.08.2018 15:00:00 27,8 25,8 8 4 S 1011,7 10 24
14.08.2018 14:00:00 27,8 25,6 9 5 SSE 1011,8 10 18
14.08.2018 13:00:00 27,4 25,0 9 5 ENE 1011,8 10 24
14.08.2018 12:00:00 27,4 25,2 9 5 W 1011,9 10 12
14.08.2018 11:00:00 27,0 24,7 11 6 SSE 1011,9 10 12
14.08.2018 10:00:00 27,0 24,3 9 5 ESE 1011,8 10 0
14.08.2018 09:00:00 26,6 22,9 11 6 ESE 1011,8 10 0
14.08.2018 08:00:00 26,4 23,1 5 3 ESE 1011,7 10 0
14.08.2018 07:00:00 26,0 22,9 5 3 E 1011,5 8 0
14.08.2018 06:00:00 26,2 23,3 4 2 E 1011,2 10 -
14.08.2018 05:00:00 26,4 23,5 5 3 S 1011,2 10 -
14.08.2018 04:00:00 26,4 23,5 4 2 W 1011,2 10 -
14.08.2018 03:00:00 26,4 23,7 4 2 S 1012,1 10 -
14.08.2018 02:00:00 26,4 24,4 8 4 SW 1012,3 10 -
14.08.2018 01:00:00 26,8 24,5 5 3 WSW 1012,2 10 -
14.08.2018 00:00:00 26,8 24,8 9 5 WSW 1012,2 10 -
13.08.2018 23:00:00 26,8 24,8 11 6 WSW 1012,2 10 -
13.08.2018 22:00:00 27,0 25,0 11 6 WSW 1012,2 10 -
13.08.2018 21:00:00 27,2 25,6 13 7 SW 1012,2 12 -
13.08.2018 20:00:00 27,4 25,8 11 6 SSW 1012,2 12 0
13.08.2018 19:00:00 27,6 26,0 8 4 SSW 1012,3 12 48
13.08.2018 18:00:00 28,0 24,6 11 6 SSW 1012,8 12 60
13.08.2018 17:00:00 28,4 24,6 15 8 SSW 1013,2 12 60
13.08.2018 16:00:00 28,4 25,0 13 7 SW 1013,6 12 60
13.08.2018 15:00:00 28,4 25,6 11 6 SSW 1013,8 12 60
13.08.2018 14:00:00 28,2 26,0 13 7 SSW 1014,2 12 60
13.08.2018 13:00:00 28,0 26,2 11 6 SSW 1014,4 12 60
13.08.2018 12:00:00 27,6 25,8 11 6 SSW 1014,2 12 60
13.08.2018 11:00:00 27,4 24,5 11 6 SSW 1014,1 12 60
13.08.2018 10:00:00 27,4 25,4 9 5 NW 1013,7 12 60
13.08.2018 09:00:00 27,6 24,9 8 4 SE 1013,3 10 60
13.08.2018 08:00:00 27,0 24,5 5 3 E 1013,3 10 60
13.08.2018 07:00:00 25,6 23,7 5 3 E 1013,4 10 30
13.08.2018 06:00:00 25,4 23,7 11 6 NE 1013,5 10 -
13.08.2018 05:00:00 26,0 22,7 5 3 ENE 1014,1 10 -
13.08.2018 04:00:00 26,2 20,3 5 3 N 1014,4 10 -
13.08.2018 03:00:00 26,2 19,1 9 5 N 1014,5 10 -
13.08.2018 02:00:00 26,6 24,8 11 6 N 1014,5 10 -
13.08.2018 01:00:00 26,2 24,4 11 6 WNW 1014,6 10 -
13.08.2018 00:00:00 26,4 24,6 9 5 WNW 1014,6 10 -
12.08.2018 23:00:00 26,8 25,0 11 6 WNW 1014,6 10 -
12.08.2018 22:00:00 26,8 25,0 5 3 W 1014,5 10 -
12.08.2018 21:00:00 27,0 25,2 5 3 WSW 1014,2 10 -
12.08.2018 20:00:00 27,4 24,9 4 2 SE 1014,1 10 0
12.08.2018 19:00:00 27,6 25,0 8 4 SE 1014,2 10 24
12.08.2018 18:00:00 28,4 23,5 8 4 E 1014,4 10 60
12.08.2018 17:00:00 28,0 24,2 8 4 SSE 1015,0 10 60
12.08.2018 16:00:00 28,0 22,9 11 6 ESE 1015,1 10 60
12.08.2018 15:00:00 28,8 23,7 13 7 E 1015,3 10 60
12.08.2018 14:00:00 28,8 23,7 11 6 E 1015,5 10 60
12.08.2018 13:00:00 28,6 22,4 15 8 E 1015,5 10 60
12.08.2018 12:00:00 28,6 22,1 15 8 E 1015,5 10 60
12.08.2018 11:00:00 27,6 21,6 15 8 E 1015,5 10 60
12.08.2018 10:00:00 27,0 22,8 16 9 ENE 1015,4 10 60
12.08.2018 09:00:00 26,8 20,9 22 12 ENE 1015,0 10 60
12.08.2018 08:00:00 25,8 22,1 21 11 NE 1014,7 10 42
12.08.2018 07:00:00 24,8 21,1 22 12 NNE 1014,5 12 0
12.08.2018 06:00:00 24,8 21,1 18 10 NNE 1014,3 12 -
12.08.2018 05:00:00 24,6 21,1 18 10 N 1014,6 12 -
12.08.2018 04:00:00 24,8 21,7 16 9 NNE 1014,7 12 -
12.08.2018 03:00:00 25,0 21,7 16 9 NNW 1015,3 12 -
12.08.2018 02:00:00 24,8 21,7 8 4 NNW 1015,3 10 -
12.08.2018 01:00:00 24,8 22,1 11 6 WNW 1015,3 10 -
12.08.2018 00:00:00 25,2 23,1 13 7 N 1015,3 10 -
11.08.2018 23:00:00 26,2 23,7 8 4 N 1015,4 10 -
11.08.2018 22:00:00 26,4 24,2 8 4 NNW 1015,4 10 -
11.08.2018 21:00:00 26,6 24,6 5 3 W 1015,2 10 -
11.08.2018 20:00:00 27,0 25,0 13 7 W 1015,0 10 0
11.08.2018 19:00:00 27,4 25,6 5 3 WSW 1015,0 10 0
11.08.2018 18:00:00 28,0 26,0 4 2 SSW 1015,0 10 6
11.08.2018 17:00:00 28,2 25,6 8 4 ESE 1015,0 10 12
11.08.2018 16:00:00 28,8 25,8 8 4 SSE 1015,1 10 54
11.08.2018 15:00:00 28,2 25,6 5 3 S 1015,1 10 6
11.08.2018 14:00:00 28,2 25,6 5 3 S 1015,6 10 12
11.08.2018 13:00:00 28,2 25,8 5 3 SW 1016,0 10 42
11.08.2018 12:00:00 27,6 25,2 13 7 WSW 1016,2 10 48
11.08.2018 11:00:00 27,8 26,0 13 7 SW 1016,2 10 12
11.08.2018 10:00:00 28,4 24,4 8 4 NW 1016,0 10 60
11.08.2018 09:00:00 27,8 23,8 16 9 NE 1015,6 10 60
11.08.2018 08:00:00 26,6 23,7 18 10 NNE 1015,6 10 60
11.08.2018 07:00:00 25,4 22,3 21 11 NNE 1015,5 10 12
11.08.2018 06:00:00 25,2 22,7 18 10 NNE 1015,5 10 -
11.08.2018 05:00:00 25,4 23,5 18 10 NNE 1015,9 10 -
11.08.2018 04:00:00 25,4 21,7 16 9 NNE 1015,9 10 -
11.08.2018 03:00:00 25,6 20,2 18 10 N 1016,1 10 -
11.08.2018 02:00:00 25,6 21,9 15 8 N 1016,7 10 -
11.08.2018 01:00:00 26,4 22,7 13 7 NNW 1016,7 12 -
11.08.2018 00:00:00 26,8 22,4 11 6 NNW 1016,7 12 -
10.08.2018 23:00:00 27,0 22,6 8 4 NNW 1016,7 12 -
10.08.2018 22:00:00 27,0 25,2 9 5 W 1016,7 12 -
10.08.2018 21:00:00 27,2 25,4 4 2 WNW 1016,1 15 -
10.08.2018 20:00:00 28,4 25,0 0 0 N 1015,7 15 0
10.08.2018 19:00:00 28,4 25,4 5 3 WSW 1015,7 15 60
10.08.2018 18:00:00 29,0 25,6 8 4 WSW 1015,9 15 60
10.08.2018 17:00:00 29,0 25,4 8 4 WSW 1016,3 15 60
10.08.2018 16:00:00 29,0 25,6 11 6 WSW 1016,5 15 60
10.08.2018 15:00:00 28,8 25,4 11 6 WSW 1016,5 15 60
10.08.2018 14:00:00 28,6 25,8 11 6 WSW 1016,4 15 60
10.08.2018 13:00:00 28,4 25,8 15 8 WSW 1016,4 15 60
10.08.2018 12:00:00 28,4 26,0 15 8 W 1016,4 15 48
10.08.2018 11:00:00 29,4 24,5 18 10 ENE 1016,3 15 60
10.08.2018 10:00:00 29,2 22,4 13 7 NE 1016,1 15 60
10.08.2018 09:00:00 27,4 20,7 13 7 NE 1016,0 15 60
10.08.2018 08:00:00 26,2 23,5 15 8 NNE 1015,8 15 60
10.08.2018 07:00:00 25,2 21,9 13 7 N 1015,6 15 0
10.08.2018 06:00:00 25,0 21,5 13 7 N 1015,5 12 0
10.08.2018 05:00:00 25,0 21,7 9 5 N 1015,4 12 -
10.08.2018 04:00:00 - - - - - - - -
10.08.2018 03:00:00 - - - - - - - -
10.08.2018 02:00:00 26,0 24,8 11 6 N 1015,0 12 -
10.08.2018 01:00:00 26,6 24,1 9 5 NW 1014,8 12 -
10.08.2018 00:00:00 26,8 24,1 8 4 NW 1014,8 12 -
09.08.2018 23:00:00 27,0 23,7 11 6 NE 1014,8 12 -
09.08.2018 22:00:00 27,4 25,4 9 5 NE 1014,7 12 -
09.08.2018 21:00:00 27,8 26,0 11 6 NE 1014,6 12 -
09.08.2018 20:00:00 28,2 24,8 5 3 W 1014,3 15 0
09.08.2018 19:00:00 29,0 23,2 5 3 W 1013,9 15 18
09.08.2018 18:00:00 28,8 16,7 11 6 W 1014,2 15 60
09.08.2018 17:00:00 28,6 20,3 15 8 SSE 1014,7 15 60
09.08.2018 16:00:00 28,6 26,4 11 6 WSW 1014,7 15 60
09.08.2018 15:00:00 29,0 21,8 9 5 SSW 1014,9 15 60
09.08.2018 14:00:00 29,0 21,8 9 5 SSE 1015,1 15 42
09.08.2018 13:00:00 28,0 23,6 8 4 SSE 1015,2 15 0
09.08.2018 12:00:00 28,0 25,0 8 4 WSW 1015,0 15 0
09.08.2018 11:00:00 28,4 23,8 8 4 WSW 1014,8 15 30
09.08.2018 10:00:00 28,4 19,1 5 3 W 1014,8 20 24
09.08.2018 09:00:00 28,0 18,7 4 2 WNW 1014,8 20 60
09.08.2018 08:00:00 26,2 20,8 5 3 NW 1014,3 20 60
09.08.2018 07:00:00 25,4 20,2 11 6 NNE 1013,9 15 0
09.08.2018 06:00:00 25,4 20,2 11 6 N 1013,9 15 -
09.08.2018 05:00:00 26,0 21,2 8 4 N 1014,5 15 -
09.08.2018 04:00:00 25,4 22,9 11 6 N 1014,5 15 -
09.08.2018 03:00:00 26,0 23,3 11 6 N 1014,0 15 -
09.08.2018 02:00:00 26,8 22,0 11 6 N 1014,4 15 -
09.08.2018 01:00:00 27,0 23,7 9 5 N 1014,4 15 -
09.08.2018 00:00:00 27,0 23,9 8 4 N 1014,4 15 -
08.08.2018 23:00:00 27,0 23,2 15 8 WNW 1014,4 15 -
08.08.2018 22:00:00 27,2 23,0 8 4 NW 1014,4 15 -
08.08.2018 21:00:00 27,6 23,4 8 4 WNW 1014,0 15 -
08.08.2018 20:00:00 28,0 23,2 4 2 WSW 1013,5 15 12
08.08.2018 19:00:00 28,0 22,0 8 4 WSW 1013,5 20 60

tt = Température de l'air
td = dewpoint
ff = Vitesse du vent
dd = Direction du vent
ppp = reduced air pressure
vv = visibility
sd = Ensoleillement

stations d'obs. à proximité